Immokalee Regional Airport [I, FL

10:03 AM EDT on May 24, 2017 (GMT -0400)
Immokalee

Weather History for KIMM - November, 2013

Change the Weather History Date:

Tuesday, November 19, 2013

  Actual Average (KRSW) Record (KRSW)
Temperature  
Mean Temperature 80 °F -  
Max Temperature 91 °F 82 °F 89 °F (1988)
Min Temperature 68 °F 62 °F 39 °F (1951)
Cooling Degree Days 14    
Growing Degree Days 30 (Base 50)    
Moisture  
Dew Point 73 °F    
Average Humidity 78    
Maximum Humidity 100    
Minimum Humidity 49    
Precipitation  
Precipitation 0.55 in - - ()
Sea Level Pressure  
Sea Level Pressure 29.93 in    
Wind  
Wind Speed 2 mph ()    
Max Wind Speed 9 mph    
Max Gust Speed -    
Visibility 8.2 miles    
Events      
Averages and records for this station are not official NWS values.
T = Trace of Precipitation, MM = Missing Value Source: Averaged Metar Reports

Daily Weather History Graph

Daily Weather History Graph

Search for Another Location

Airport or City:

Trip Planner

Search our weather history database for the weather conditions in past years. The results will help you decide how hot, cold, wet, or windy it might be!

Date:

Astronomy

Nov. 19, 2013 Rise Set
Actual Time 6:47 AM EST 5:34 PM EST
Civil Twilight 6:23 AM EST 5:58 PM EST
Nautical Twilight 5:54 AM EST 6:26 PM EST
Astronomical Twilight 5:27 AM EST 6:54 PM EST
Moon 7:25 PM EST (11/19) 8:24 AM EST (11/19)
Length of Visible Light 11h 35m
Length of Day
10h 46m
Waning Gibbous, 96% of the Moon is Illuminated
Nov 19
Waning Gibbous
Nov 25
Last Quarter
Dec 2
New
Dec 9
First Quarter
Dec 17
Full

Hourly Weather History & Observations

Time (EST) Temp. Heat Index Dew Point Humidity Pressure Visibility Wind Dir Wind Speed Gust Speed Precip Events Conditions
12:15 AM 73.4 °F - 73.4 °F 100% 29.95 in 10.0 mi Calm Calm - 0.00 in   Overcast
12:35 AM 71.6 °F - 71.6 °F 100% 29.95 in 10.0 mi Calm Calm - 0.00 in   Partly Cloudy
12:55 AM 71.6 °F - 71.6 °F 100% 29.94 in 10.0 mi Calm Calm - 0.00 in   Clear
1:15 AM 69.8 °F - - N/A% 29.94 in 10.0 mi Calm Calm - 0.00 in   Clear
1:35 AM 69.8 °F - - N/A% 29.93 in 10.0 mi Calm Calm - 0.00 in   Clear
1:55 AM 68.0 °F - - N/A% 29.92 in 10.0 mi Calm Calm - 0.00 in   Clear
2:15 AM 68.0 °F - - N/A% 29.92 in 10.0 mi Calm Calm - 0.00 in   Clear
2:35 AM 69.8 °F - - N/A% 29.93 in 10.0 mi West 4.6 mph - 0.00 in   Mostly Cloudy
2:55 AM 71.6 °F - - N/A% 29.92 in 10.0 mi Calm Calm - 0.00 in   Overcast
3:15 AM 71.6 °F - - N/A% 29.92 in 10.0 mi West 3.5 mph - 0.00 in   Overcast
3:35 AM 71.6 °F - - N/A% 29.92 in 10.0 mi Calm Calm - 0.00 in   Mostly Cloudy
3:55 AM 71.6 °F - - N/A% 29.91 in 10.0 mi Calm Calm - 0.00 in   Overcast
4:15 AM 71.6 °F - - N/A% 29.91 in 10.0 mi Calm Calm - 0.00 in   Overcast
4:35 AM 71.6 °F - - N/A% 29.91 in 10.0 mi Calm Calm - 0.00 in   Overcast
4:55 AM 71.6 °F - - N/A% 29.91 in 10.0 mi Calm Calm - 0.00 in   Overcast
5:15 AM 71.6 °F - - N/A% 29.91 in 10.0 mi Calm Calm - 0.00 in   Overcast
5:35 AM 69.8 °F - - N/A% 29.91 in 10.0 mi Calm Calm - 0.00 in   Overcast
5:55 AM 71.6 °F - - N/A% 29.92 in 10.0 mi Calm Calm - 0.00 in   Overcast
6:15 AM 69.8 °F - - N/A% 29.93 in 10.0 mi Calm Calm - 0.00 in   Mostly Cloudy
6:35 AM 69.8 °F - - N/A% 29.93 in 10.0 mi Calm Calm - 0.00 in   Mostly Cloudy
6:55 AM 71.6 °F - - N/A% 29.94 in 10.0 mi Calm Calm - 0.00 in   Overcast
7:15 AM 71.6 °F - - N/A% 29.94 in 10.0 mi Calm Calm - 0.00 in   Overcast
7:35 AM 71.6 °F - - N/A% 29.95 in 10.0 mi Calm Calm - 0.00 in   Scattered Clouds
7:55 AM 71.6 °F - - N/A% 29.95 in 9.0 mi Calm Calm - 0.00 in   Clear
8:15 AM 71.6 °F - - N/A% 29.96 in 10.0 mi Calm Calm - 0.00 in   Clear
8:35 AM 77.0 °F - 77.0 °F 100% 29.96 in 10.0 mi Calm Calm - 0.00 in   Clear
8:55 AM 78.8 °F - 75.2 °F 89% 29.96 in 10.0 mi Calm Calm - 0.00 in   Clear
9:15 AM 80.6 °F 86.2 °F 75.2 °F 84% 29.96 in 10.0 mi North 6.9 mph - 0.00 in   Clear
9:35 AM 82.4 °F 89.5 °F 75.2 °F 79% 29.97 in 10.0 mi NNW 4.6 mph - 0.00 in   Clear
9:55 AM 84.2 °F 90.9 °F 73.4 °F 70% 29.97 in 10.0 mi North 5.8 mph - 0.00 in   Scattered Clouds
10:15 AM 84.2 °F 90.9 °F 73.4 °F 70% 29.97 in 10.0 mi NNW 3.5 mph - 0.00 in   Scattered Clouds
10:35 AM 86.0 °F 93.4 °F 73.4 °F 66% 29.97 in 10.0 mi NNE 4.6 mph - 0.00 in   Partly Cloudy
10:55 AM 84.2 °F 89.6 °F 71.6 °F 66% 29.96 in 10.0 mi Calm Calm - 0.00 in   Partly Cloudy
11:15 AM 84.2 °F 89.6 °F 71.6 °F 66% 29.96 in 10.0 mi Calm Calm - 0.00 in   Partly Cloudy
11:35 AM 87.8 °F 93.8 °F 71.6 °F 58% 29.95 in 10.0 mi WNW 4.6 mph - 0.00 in   Partly Cloudy
11:55 AM 84.2 °F 90.9 °F 73.4 °F 70% 29.95 in 10.0 mi North 3.5 mph - 0.00 in   Scattered Clouds
12:15 PM 86.0 °F 91.8 °F 71.6 °F 62% 29.94 in 10.0 mi West 3.5 mph - 0.00 in   Partly Cloudy
12:35 PM 84.2 °F 88.4 °F 69.8 °F 62% 29.93 in 10.0 mi West 3.5 mph - 0.00 in   Partly Cloudy
12:55 PM 89.6 °F 94.7 °F 69.8 °F 52% 29.92 in 10.0 mi SW 4.6 mph - 0.00 in   Partly Cloudy
1:15 PM 87.8 °F 92.6 °F 69.8 °F 55% 29.90 in 10.0 mi WNW 4.6 mph - 0.00 in   Scattered Clouds
1:35 PM 89.6 °F 93.4 °F 68.0 °F 49% 29.89 in 10.0 mi North 4.6 mph - 0.00 in   Mostly Cloudy
1:55 PM 91.4 °F 96.8 °F 69.8 °F 49% 29.88 in 10.0 mi WSW 9.2 mph - 0.00 in   Mostly Cloudy
2:15 PM 89.6 °F 94.7 °F 69.8 °F 52% 29.88 in 10.0 mi NE 8.1 mph - 0.00 in   Mostly Cloudy
2:35 PM 78.8 °F - 78.8 °F 100% 29.88 in 2.0 mi North 8.1 mph - 0.05 in   Overcast
2:55 PM 78.8 °F - 78.8 °F 100% 29.88 in 10.0 mi ENE 5.8 mph - 0.05 in   Overcast
3:15 PM 78.8 °F - 78.8 °F 100% 29.88 in 10.0 mi Calm Calm - 0.00 in   Overcast
3:35 PM 78.8 °F - 78.8 °F 100% 29.89 in 10.0 mi NE 6.9 mph - 0.00 in   Mostly Cloudy
3:55 PM 77.0 °F - 77.0 °F 100% 29.88 in 10.0 mi Calm Calm - 0.00 in   Mostly Cloudy
4:15 PM 75.2 °F - 75.2 °F 100% 29.90 in 10.0 mi WNW 5.8 mph - 0.01 in   Mostly Cloudy
4:35 PM 75.2 °F - - N/A% 29.90 in 1.0 mi North 3.5 mph - 0.15 in   Overcast
4:55 PM 75.2 °F - - N/A% 29.91 in 1.5 mi North 6.9 mph - 0.22 in   Overcast
5:15 PM 73.4 °F - - N/A% 29.92 in 3.0 mi NNW 6.9 mph - 0.02 in   Overcast
5:35 PM 73.4 °F - - N/A% 29.92 in 1.2 mi North 5.8 mph - 0.13 in   Overcast
5:55 PM 71.6 °F - - N/A% 29.92 in 2.5 mi NE 8.1 mph - 0.21 in   Overcast
6:15 PM 71.6 °F - - N/A% 29.93 in 3.0 mi ENE 5.8 mph - 0.03 in   Mostly Cloudy
6:35 PM 71.6 °F - - N/A% 29.94 in 3.0 mi ENE 6.9 mph - 0.06 in   Mostly Cloudy
6:55 PM 71.6 °F - - N/A% 29.94 in 5.0 mi ENE 5.8 mph - 0.07 in   Mostly Cloudy
7:15 PM 71.6 °F - - N/A% 29.95 in 10.0 mi Calm Calm - 0.00 in   Scattered Clouds
7:35 PM 71.6 °F - - N/A% 29.95 in 10.0 mi Calm Calm - 0.00 in   Mostly Cloudy
7:55 PM 71.6 °F - - N/A% 29.95 in 10.0 mi Calm Calm - 0.00 in   Mostly Cloudy
8:15 PM 71.6 °F - - N/A% 29.95 in 10.0 mi Calm Calm - 0.00 in   Partly Cloudy
8:35 PM 69.8 °F - - N/A% 29.96 in 4.0 mi Calm Calm - 0.00 in   Clear
9:15 PM 69.8 °F - - N/A% 29.97 in 0.8 mi Calm Calm - 0.00 in   Scattered Clouds
9:35 PM 69.8 °F - - N/A% 29.98 in 0.8 mi Calm Calm - 0.00 in   Mostly Cloudy
9:55 PM 69.8 °F - - N/A% 29.97 in 9.0 mi Calm Calm - 0.00 in   Partly Cloudy
10:15 PM 69.8 °F - - N/A% 29.98 in 8.0 mi Calm Calm - 0.00 in   Mostly Cloudy
10:35 PM 69.8 °F - - N/A% 29.97 in 8.0 mi Calm Calm - 0.00 in   Overcast
10:55 PM 69.8 °F - - N/A% 29.97 in 1.0 mi Calm Calm - 0.00 in   Mostly Cloudy
11:15 PM 69.8 °F - - N/A% 29.97 in 0.8 mi Calm Calm - 0.00 in   Unknown
11:35 PM 69.8 °F - - N/A% 29.97 in 2.5 mi Calm Calm - 0.00 in   Mostly Cloudy
11:55 PM 69.8 °F - - N/A% 29.97 in 5.0 mi Calm Calm - 0.00 in   Mostly Cloudy